| time (UTC) | temp F | wind direction | speed MPH | gust MPH | rain 1hr in | rain 24hr in | rain mn in | humidity % | barometer mb |
| 20260510200037 | 57 | 128 | 2.0 | 9.0 | 0.00 | 0.00 | 0.00 | 38 | 1020.4 |
| 20260510194545 | 57 | 294 | 5.0 | 14.0 | 0.00 | 0.00 | 0.00 | 34 | 1020.6 |
| 20260510193042 | 58 | 198 | 3.0 | 12.0 | 0.00 | 0.00 | 0.00 | 33 | 1020.5 |
| 20260510191541 | 57 | 225 | 3.0 | 11.0 | 0.00 | 0.00 | 0.00 | 36 | 1020.4 |
| 20260510190044 | 57 | 263 | 6.0 | 16.0 | 0.00 | 0.00 | 0.00 | 35 | 1020.5 |
| 20260510184540 | 57 | 228 | 5.0 | 17.0 | 0.00 | 0.00 | 0.00 | 36 | 1020.5 |
| 20260510183040 | 57 | 261 | 4.0 | 13.0 | 0.00 | 0.00 | 0.00 | 37 | 1020.5 |
| 20260510181541 | 56 | 192 | 3.0 | 11.0 | 0.00 | 0.00 | 0.00 | 37 | 1020.5 |
| 20260510180041 | 56 | 209 | 5.0 | 15.0 | 0.00 | 0.00 | 0.00 | 38 | 1020.4 |
| 20260510174540 | 56 | 212 | 4.0 | 10.0 | 0.00 | 0.00 | 0.00 | 38 | 1020.4 |
| 20260510173043 | 55 | 138 | 4.0 | 16.0 | 0.00 | 0.00 | 0.00 | 38 | 1020.4 |
| 20260510171543 | 55 | 184 | 5.0 | 19.0 | 0.00 | 0.00 | 0.00 | 40 | 1020.5 |
| 20260510170045 | 55 | 261 | 4.0 | 15.0 | 0.00 | 0.00 | 0.00 | 39 | 1020.4 |
| 20260510164544 | 54 | 209 | 4.0 | 12.0 | 0.00 | 0.00 | 0.00 | 42 | 1020.5 |
| 20260510163038 | 54 | 203 | 5.0 | 13.0 | 0.00 | 0.00 | 0.00 | 42 | 1020.6 |
| 20260510161540 | 53 | 211 | 3.0 | 14.0 | 0.00 | 0.00 | 0.00 | 44 | 1020.5 |
| 20260510160035 | 52 | 219 | 2.0 | 7.0 | 0.00 | 0.00 | 0.00 | 44 | 1020.4 |
| 20260510154542 | 52 | 173 | 4.0 | 14.0 | 0.00 | 0.00 | 0.00 | 44 | 1020.5 |
| 20260510153043 | 52 | 330 | 2.0 | 8.0 | 0.00 | 0.00 | 0.00 | 51 | 1020.4 |
| 20260510150048 | 51 | 250 | 2.0 | 15.0 | 0.00 | 0.00 | 0.00 | 53 | 1020.3 |
| 20260510144551 | 50 | 254 | 2.0 | 7.0 | 0.00 | 0.00 | 0.00 | 58 | 1020.3 |
| 20260510143056 | 49 | 348 | 2.0 | 10.0 | 0.00 | 0.00 | 0.00 | 56 | 1020.3 |
| 20260510141537 | 49 | 318 | 2.0 | 9.0 | 0.00 | 0.00 | 0.00 | 58 | 1020.3 |
| 20260510140047 | 50 | 258 | 3.0 | 8.0 | 0.00 | 0.00 | 0.00 | 58 | 1020.3 |
| 20260510134558 | 48 | 245 | 1.0 | 6.0 | 0.00 | 0.00 | 0.00 | 61 | 1020.2 |
| 20260510133040 | 48 | 255 | 2.0 | 8.0 | 0.00 | 0.00 | 0.00 | 60 | 1020.1 |
| 20260510131540 | 46 | 238 | 1.0 | 8.0 | 0.00 | 0.00 | 0.00 | 64 | 1020.0 |
| 20260510130047 | 44 | 210 | 3.0 | 8.0 | 0.00 | 0.00 | 0.00 | 66 | 1019.9 |
| 20260510124551 | 42 | 0 | 1.0 | 4.0 | 0.00 | 0.00 | 0.00 | 68 | 1019.9 |
| 20260510123041 | 41 | 0 | 0.0 | 2.0 | 0.00 | 0.00 | 0.00 | 72 | 1019.6 |
| 20260510121538 | 40 | 0 | 0.0 | 2.0 | 0.00 | 0.00 | 0.00 | 72 | 1019.4 |
| 20260510120040 | 39 | 0 | 0.0 | 0.0 | 0.00 | 0.00 | 0.00 | 75 | 1019.2 |
| 20260510114546 | 39 | 0 | 0.0 | 0.0 | 0.00 | 0.00 | 0.00 | 76 | 1019.2 |
| 20260510113043 | 38 | 0 | 0.0 | 0.0 | 0.00 | 0.00 | 0.00 | 76 | 1018.9 |
| 20260510111553 | 38 | 0 | 0.0 | 0.0 | 0.00 | 0.00 | 0.00 | 77 | 1018.8 |
| 20260510110041 | 37 | 0 | 0.0 | 0.0 | 0.00 | 0.00 | 0.00 | 78 | 1018.7 |
| 20260510104546 | 37 | 0 | 0.0 | 0.0 | 0.00 | 0.01 | 0.00 | 79 | 1018.4 |
| 20260510103046 | 37 | 0 | 0.0 | 0.0 | 0.00 | 0.01 | 0.00 | 79 | 1018.1 |
| 20260510101540 | 36 | 0 | 0.0 | 0.0 | 0.00 | 0.01 | 0.00 | 80 | 1017.9 |
| 20260510100043 | 36 | 0 | 0.0 | 1.0 | 0.00 | 0.01 | 0.00 | 79 | 1017.5 |
| 20260510094543 | 36 | 0 | 0.0 | 0.0 | 0.00 | 0.02 | 0.00 | 78 | 1017.3 |
| 20260510093040 | 36 | 0 | 0.0 | 0.0 | 0.00 | 0.02 | 0.00 | 78 | 1017.2 |
| 20260510091540 | 37 | 0 | 0.0 | 0.0 | 0.00 | 0.02 | 0.00 | 77 | 1017.0 |
| 20260510090040 | 37 | 0 | 0.0 | 0.0 | 0.00 | 0.02 | 0.00 | 77 | 1016.7 |
| 20260510084535 | 38 | 0 | 0.0 | 0.0 | 0.00 | 0.02 | 0.00 | 78 | 1016.7 |
| 20260510083043 | 38 | 0 | 0.0 | 0.0 | 0.00 | 0.02 | 0.00 | 78 | 1016.4 |
| 20260510081548 | 38 | 0 | 0.0 | 0.0 | 0.00 | 0.02 | 0.00 | 78 | 1016.5 |
| 20260510080042 | 37 | 0 | 0.0 | 0.0 | 0.00 | 0.02 | 0.00 | 78 | 1016.2 |
| 20260510074541 | 37 | 0 | 0.0 | 0.0 | 0.00 | 0.02 | 0.00 | 77 | 1016.1 |
| 20260510073037 | 37 | 0 | 0.0 | 0.0 | 0.00 | 0.02 | 0.00 | 75 | 1016.1 |
| 20260510071545 | 37 | 0 | 0.0 | 0.0 | 0.00 | 0.02 | 0.00 | 74 | 1016.1 |
| 20260510070047 | 38 | 0 | 0.0 | 0.0 | 0.00 | 0.02 | 0.00 | 72 | 1016.1 |
| 20260510064539 | 39 | 0 | 0.0 | 0.0 | 0.00 | 0.02 | 0.00 | 70 | 1016.0 |
| 20260510063041 | 39 | 0 | 0.0 | 0.0 | 0.00 | 0.02 | 0.00 | 68 | 1015.8 |
| 20260510061538 | 40 | 0 | 0.0 | 0.0 | 0.00 | 0.02 | 0.00 | 67 | 1016.0 |
| 20260510060053 | 41 | 0 | 0.0 | 0.0 | 0.00 | 0.02 | 0.00 | 65 | 1015.9 |
| 20260510054547 | 41 | 0 | 0.0 | 0.0 | 0.00 | 0.02 | 0.00 | 63 | 1015.7 |
| 20260510053043 | 42 | 0 | 0.0 | 0.0 | 0.00 | 0.02 | 0.00 | 63 | 1015.6 |
| 20260510051559 | 42 | 0 | 0.0 | 0.0 | 0.00 | 0.02 | 0.00 | 62 | 1015.5 |
| 20260510050049 | 42 | 0 | 0.0 | 0.0 | 0.00 | 0.02 | 0.00 | 59 | 1015.4 |
| 20260510044546 | 43 | 0 | 0.0 | 0.0 | 0.00 | 0.02 | 0.02 | 58 | 1015.5 |
| 20260510043120 | 44 | 0 | 0.0 | 0.0 | 0.00 | 0.02 | 0.02 | 56 | 1015.4 |
| 20260510041551 | 45 | 0 | 0.0 | 0.0 | 0.00 | 0.02 | 0.02 | 53 | 1015.4 |
| 20260510040042 | 46 | 0 | 0.0 | 0.0 | 0.00 | 0.02 | 0.02 | 51 | 1015.1 |
| 20260510034545 | 48 | 0 | 0.0 | 0.0 | 0.00 | 0.02 | 0.02 | 48 | 1015.2 |
| 20260510033040 | 49 | 0 | 0.0 | 3.0 | 0.00 | 0.02 | 0.02 | 46 | 1015.2 |
| 20260510031605 | 50 | 201 | 0.0 | 6.0 | 0.00 | 0.02 | 0.02 | 44 | 1015.0 |
| 20260510030045 | 50 | 202 | 1.0 | 4.0 | 0.00 | 0.02 | 0.02 | 43 | 1014.9 |
| 20260510024545 | 51 | 201 | 1.0 | 6.0 | 0.00 | 0.02 | 0.02 | 42 | 1014.4 |
| 20260510023047 | 52 | 0 | 2.0 | 9.0 | 0.00 | 0.02 | 0.02 | 41 | 1014.2 |
| 20260510021542 | 52 | 186 | 0.0 | 7.0 | 0.00 | 0.02 | 0.02 | 40 | 1013.8 |
| 20260510020037 | 53 | 160 | 2.0 | 8.0 | 0.00 | 0.02 | 0.02 | 38 | 1013.5 |
| 20260510014538 | 53 | 217 | 2.0 | 9.0 | 0.00 | 0.02 | 0.02 | 38 | 1013.1 |
| 20260510013038 | 54 | 171 | 2.0 | 7.0 | 0.00 | 0.02 | 0.02 | 38 | 1012.8 |
| 20260510011556 | 54 | 200 | 3.0 | 12.0 | 0.00 | 0.02 | 0.02 | 36 | 1012.5 |
| 20260510010050 | 55 | 256 | 2.0 | 9.0 | 0.00 | 0.02 | 0.02 | 35 | 1012.3 |
| 20260510004542 | 56 | 198 | 4.0 | 12.0 | 0.00 | 0.02 | 0.02 | 35 | 1012.1 |
| 20260510003038 | 56 | 171 | 3.0 | 16.0 | 0.00 | 0.02 | 0.02 | 34 | 1012.0 |
| 20260510001537 | 57 | 237 | 3.0 | 11.0 | 0.00 | 0.02 | 0.02 | 34 | 1011.8 |
| 20260510000048 | 59 | 221 | 3.0 | 10.0 | 0.00 | 0.02 | 0.02 | 33 | 1011.6 |
| 20260509234543 | 58 | 242 | 3.0 | 13.0 | 0.00 | 0.02 | 0.02 | 35 | 1011.4 |
| 20260509233041 | 57 | 167 | 3.0 | 9.0 | 0.00 | 0.02 | 0.02 | 35 | 1011.3 |
| 20260509231546 | 57 | 252 | 4.0 | 12.0 | 0.00 | 0.02 | 0.02 | 33 | 1011.2 |
| 20260509230040 | 58 | 242 | 5.0 | 14.0 | 0.00 | 0.02 | 0.02 | 34 | 1011.1 |
| 20260509224537 | 58 | 0 | 3.0 | 14.0 | 0.00 | 0.02 | 0.02 | 32 | 1011.0 |
| 20260509223037 | 59 | 209 | 3.0 | 13.0 | 0.00 | 0.02 | 0.02 | 33 | 1010.9 |
| 20260509221545 | 59 | 221 | 6.0 | 16.0 | 0.00 | 0.02 | 0.02 | 33 | 1010.8 |
| 20260509220046 | 59 | 0 | 2.0 | 11.0 | 0.00 | 0.02 | 0.02 | 34 | 1010.4 |
| 20260509214541 | 58 | 198 | 6.0 | 19.0 | 0.00 | 0.02 | 0.02 | 33 | 1010.6 |
| 20260509213101 | 59 | 176 | 5.0 | 16.0 | 0.00 | 0.02 | 0.02 | 33 | 1010.4 |
| 20260509211605 | 59 | 192 | 5.0 | 17.0 | 0.00 | 0.02 | 0.02 | 33 | 1010.4 |
| 20260509210055 | 59 | 286 | 7.0 | 18.0 | 0.00 | 0.02 | 0.02 | 35 | 1010.1 |
| 20260509204558 | 58 | 191 | 4.0 | 18.0 | 0.00 | 0.02 | 0.02 | 37 | 1009.9 |
| 20260509203052 | 59 | 167 | 5.0 | 17.0 | 0.00 | 0.02 | 0.02 | 35 | 1009.8 |
| 20260509201541 | 59 | 232 | 2.0 | 13.0 | 0.00 | 0.02 | 0.02 | 37 | 1009.8 |